Change the Weather History Date:

Monday, October 14, 2013

  Actual Average Record
Temperature  
Mean Temperature 76 °F -  
Max Temperature 87 °F 86 °F 94 °F (1986)
Min Temperature 68 °F 65 °F 45 °F (1977)
Cooling Degree Days 11    
Growing Degree Days 26 (Base 50)    
Moisture  
Dew Point 64 °F    
Average Humidity 70    
Maximum Humidity 93    
Minimum Humidity 44    
Precipitation  
Precipitation 0.00 in - - ()
Sea Level Pressure  
Sea Level Pressure 30.02 in    
Wind  
Wind Speed 7 mph (North)    
Max Wind Speed 12 mph    
Max Gust Speed -    
Visibility 10 miles    
Events      
Averages and records for this station are not official NWS values.
T = Trace of Precipitation, MM = Missing Value Source: NWS Daily Summary

Daily Weather History Graph

Daily Weather History Graph

Search for Another Location

Airport or City:

Trip Planner

Search our weather history database for the weather conditions in past years. The results will help you decide how hot, cold, wet, or windy it might be!

Date:

Astronomy

Oct. 14, 2013 Rise Set
Actual Time 7:26 AM EDT 6:58 PM EDT
Civil Twilight 7:03 AM EDT 7:22 PM EDT
Nautical Twilight 6:36 AM EDT 7:49 PM EDT
Astronomical Twilight 6:08 AM EDT 8:16 PM EDT
Moon 4:08 PM EDT (10/14) 3:04 AM EDT (10/14)
Length of Visible Light 12h 18m
Length of Day
11h 31m
Waxing Gibbous, 79% of the Moon is Illuminated
Oct 14
Waxing Gibbous
Oct 18
Full
Oct 26
Last Quarter
Nov 3
New
Nov 10
First Quarter

Hourly Weather History & Observations

Time (EDT) Temp. Heat Index Dew Point Humidity Pressure Visibility Wind Dir Wind Speed Gust Speed Precip Events Conditions
12:53 AM 71.1 °F - 63.0 °F 75% 30.06 in 10.0 mi NNE 4.6 mph - N/A   Clear
1:53 AM 69.1 °F - 63.0 °F 81% 30.05 in 10.0 mi North 3.5 mph - N/A   Clear
2:53 AM 69.1 °F - 63.0 °F 81% 30.04 in 10.0 mi North 6.9 mph - N/A   Clear
3:53 AM 69.1 °F - 64.9 °F 87% 30.04 in 10.0 mi North 5.8 mph - N/A   Clear
4:53 AM 69.1 °F - 66.0 °F 90% 30.03 in 10.0 mi North 6.9 mph - N/A   Clear
5:53 AM 69.1 °F - 66.0 °F 90% 30.03 in 10.0 mi North 8.1 mph - N/A   Clear
6:53 AM 68.0 °F - 66.0 °F 93% 30.03 in 10.0 mi North 9.2 mph - N/A   Clear
7:53 AM 68.0 °F - 64.9 °F 90% 30.04 in 7.0 mi North 8.1 mph - N/A   Clear
8:53 AM 71.1 °F - 66.0 °F 84% 30.05 in 10.0 mi North 10.4 mph - N/A   Clear
9:53 AM 75.9 °F - 66.9 °F 74% 30.06 in 10.0 mi North 11.5 mph - N/A   Clear
10:53 AM 79.0 °F - 66.9 °F 66% 30.06 in 10.0 mi NNE 9.2 mph - N/A   Clear
11:53 AM 82.0 °F 83.8 °F 64.9 °F 56% 30.05 in 10.0 mi NE 6.9 mph - N/A   Partly Cloudy
12:53 PM 82.9 °F 84.4 °F 64.0 °F 53% 30.03 in 10.0 mi Variable 6.9 mph - N/A   Clear
1:53 PM 84.9 °F 85.9 °F 63.0 °F 48% 30.01 in 10.0 mi NNE 10.4 mph - N/A   Partly Cloudy
2:53 PM 84.9 °F 85.4 °F 62.1 °F 46% 29.98 in 10.0 mi North 6.9 mph - N/A   Clear
3:53 PM 84.9 °F 85.0 °F 61.0 °F 44% 29.96 in 10.0 mi North 6.9 mph - N/A   Clear
4:53 PM 84.9 °F 85.0 °F 61.0 °F 44% 29.96 in 10.0 mi North 6.9 mph - N/A   Partly Cloudy
5:53 PM 84.0 °F 84.0 °F 60.1 °F 44% 29.96 in 10.0 mi NNE 5.8 mph - N/A   Scattered Clouds
6:53 PM 80.1 °F 81.2 °F 62.1 °F 54% 29.97 in 10.0 mi North 6.9 mph - N/A   Mostly Cloudy
7:53 PM 77.0 °F - 64.9 °F 66% 29.99 in 10.0 mi NNE 9.2 mph - N/A   Mostly Cloudy
8:53 PM 75.0 °F - 66.0 °F 73% 30.01 in 10.0 mi NNE 9.2 mph - N/A   Mostly Cloudy
9:53 PM 73.9 °F - 66.0 °F 76% 30.02 in 10.0 mi NNE 8.1 mph - N/A   Overcast
10:53 PM 72.0 °F - 64.9 °F 78% 30.03 in 10.0 mi North 6.9 mph - N/A   Overcast
11:53 PM 71.1 °F - 66.0 °F 84% 30.03 in 10.0 mi NNE 6.9 mph - N/A   Clear